Regional Weather Roundup
Issued by NWS

Home | Current Version | Previous Version | Graphics & Text | Print | Product List | Glossary On
Versions: 1 2 3 4 5 6 7 8 9 10 11 12 13 14 15 16 17 18 19 20 21 22 23 24 25 26 27 28 29 30 31 32 33 34 35 36 37 38 39 40 41 42 43 44 45 46 47 48 49 50
000
ASUS43 KLSX 261607
RWRMO

WEATHER SUMMARY FOR MISSOURI
NATIONAL WEATHER SERVICE SPRINGFIELD MO
1100 AM CDT MON SEP 26 2016

NOTE: "FAIR" INDICATES FEW OR NO CLOUDS BELOW 12,000 FEET WITH NO
       SIGNIFICANT WEATHER AND/OR OBSTRUCTIONS TO VISIBILITY.
       CURRENT SKY AND/OR WEATHER CONDITIONS ARE NOT AVAILABLE FOR
       CHILLICOTHE AND FARMINGTON.

MOZ001>031-035>038-043-044-053-054-261700-
...NORTHERN AND WESTERN MISSOURI...

CITY           SKY/WX    TMP DP  RH WIND       PRES   REMARKS
KANSAS CTY INT SUNNY     64  46  52 VRB6      30.28R
KANSAS C DTWN  SUNNY     66  46  48 VRB5      30.27R
LEE`S SUMMIT   SUNNY     64  46  52 W5        30.28R
ST JOSEPH      SUNNY     67  43  41 W8        30.26S
CHILLICOTHE      N/A     67  43  41 NW8       30.24S
KIRKSVILLE     SUNNY     66  42  41 NW12      30.22R

$$
MOZ066>068-077>081-088>096-101>105-261700-
...SOUTHWEST MISSOURI...

CITY           SKY/WX    TMP DP  RH WIND       PRES   REMARKS
SPRINGFIELD    SUNNY     67  46  47 N17       30.26R
JOPLIN         SUNNY     67  46  47 N10       30.29R
BRANSON        MOSUNNY   63  55  77 N12       30.26S

$$
MOZ032>034-039>042-045>050-055>058-069>072-261700-
...CENTRAL MISSOURI...

CITY           SKY/WX    TMP DP  RH WIND       PRES   REMARKS
COLUMBIA       SUNNY     66  45  46 NW8       30.23R
JEFFERSON CITY SUNNY     67  49  52 VRB6      30.23R
ROLLA          SUNNY     66  47  50 N12       30.22R
SEDALIA        SUNNY     69  41  36 NW9       30.26S
WHITEMAN AFB   MOSUNNY   68  40  36 N8        30.24F
OSAGE BEACH    SUNNY     66  45  46 VRB6      30.26R

$$
MOZ051-052-059>065-261700-
...EAST CENTRAL MISSOURI...

CITY           SKY/WX    TMP DP  RH WIND       PRES   REMARKS
ST LOUIS INTL  NOT AVBL
SPIRIT OF STL  MOSUNNY   69  50  50 NW9       30.18S
ST CHARLES     SUNNY     68  45  43 NW10      30.17F

$$
MOZ072>076-082>087-097>100-106>115-261700-
...SOUTH CENTRAL AND SOUTHEAST MISSOURI...

CITY           SKY/WX    TMP DP  RH WIND       PRES   REMARKS
CAPE GIRARDEAU CLOUDY    67  56  67 VRB5      30.18S
FARMINGTON     CLOUDY    63  56  78 N8        30.20R
WEST PLAINS    CLOUDY    67  51  56 N9        30.24R

$$



USA.gov is the U.S. government's official web portal to all federal, state and local government web resources and services.